406  
NZUS93 KARX 232110  
HRRWXR  
 
CURRENT HOURLY OBSERVATIONS ACROSS  
MUCH OF THE UPPER MISSISSIPPI VALLEY  
NATIONAL WEATHER SERVICE LA CROSSE WI  
300 PM CST SUN FEB 23 2020  
 
   
..SOUTHEAST MINNESOTA
 
 
 
CITY SKY/WX TMP DP RH WIND PRES REMARKS  
ROCHESTER FAIR 39 28 64 W16 29.88S WCI 30  
ROCHESTER/MAYO FAIR 43 28 56 W12G23 29.89R  
WINONA FAIR 46 30 53 W8 29.87S  
AUSTIN FAIR 43 30 61 NW13 29.90S  
ALBERT LEA FAIR N/A N/A N/A W8 29.92S  
DODGE CENTER FAIR 39 27 60 W18 29.90R WCI 30  
PRESTON FAIR 39 28 64 NW8 29.89R WCI 34  
OWATONNA FAIR 37 28 70 W12 29.92R WCI 30  
FARIBAULT N/A 39 30 70 W10 29.92S WCI 32  

 
   
..ELSEWHERE IN MINNESOTA
 
 
 
CITY SKY/WX TMP DP RH WIND PRES REMARKS  
MINNEAPOLIS FAIR 44 27 51 W15G29 29.89R  
INTNL FALLS CLOUDY 35 28 75 W20G30 29.71R WCI 24  
DULUTH FAIR 41 25 53 W23G37 29.71R  
RED WING FAIR 43 27 52 W15 29.87R  
REDWOOD FALLS SUNNY 40 28 62 NW9 29.96R WCI 34  
MANKATO FAIR 38 29 70 NW18 29.93F WCI 28  
WORTHINGTON SUNNY 38 30 73 NW10 29.98R WCI 31  
FAIRMONT SUNNY 39 30 70 NW15 29.96R WCI 31  

 
   
..SOUTHWEST WISCONSIN
 
 
 
CITY SKY/WX TMP DP RH WIND PRES REMARKS  
LA CROSSE FAIR 48 27 44 W12 29.85S  
PRAIRIE DU CHI FAIR 47 26 44 W7 29.90R  
BOSCOBEL FAIR 52 26 36 SW10 29.88S  
LONE ROCK FAIR 50 27 40 SW8 29.86F  
PLATTEVILLE FAIR 43 31 63 SW10 29.90S  
FORT MC COY FAIR 50 26 40 W8 29.84S  
CAMP DOUGLAS SUNNY 46 28 49 W13 29.81S  
MAUSTON-NEW LI FAIR 51 26 38 W12 29.82S  
VIROQUA FAIR 47 29 51 W10G16 29.85S  
WIS DELLS FAIR 48 25 40 SW10 29.82F  

 
   
..ELSEWHERE IN WISCONSIN
 
 
 
CITY SKY/WX TMP DP RH WIND PRES REMARKS  
MILWAUKEE FAIR 51 26 37 W13 29.86F  
MADISON FAIR 48 26 42 SW9 29.86F  
GREEN BAY FAIR 45 28 51 SW9 29.75F  
EAU CLAIRE FAIR 46 27 47 W13 29.82R  
BLACK RVR FLS FAIR 49 25 39 W13G21 29.82S  
MEDFORD FAIR 42 26 53 SW8G18 29.76S  
WAUSAU FAIR 44 25 47 W15G25 29.75R  
WIS RAPIDS FAIR 51 25 36 W14G23 29.79S  
MARSHFIELD FAIR 45 25 45 W12 29.77S  
RICE LAKE FAIR 50 32 49 SW12G17 29.80S  

 
   
..NORTHEAST IOWA
 
 
 
CITY SKY/WX TMP DP RH WIND PRES REMARKS  
WATERLOO FAIR 50 30 46 W10 29.93R  
DUBUQUE FAIR 44 33 65 S5 29.91S  
DECORAH FAIR 45 28 53 W8 29.89R  
MASON CITY SUNNY 40 29 64 NW13 29.95R WCI 32  
CHARLES CITY FAIR 41 30 65 W9 29.93R  
OELWEIN SUNNY 45 32 61 NW13 29.93R  

 
   
..ELSEWHERE IN IOWA
 
 
 
CITY SKY/WX TMP DP RH WIND PRES REMARKS  
DES MOINES PTSUNNY 62 24 23 N8 29.93S  
IOWA CITY FAIR 58 32 37 SW7 29.95S  
FORT DODGE SUNNY 49 37 63 NW7 29.96S  
MARSHALLTOWN SUNNY 55 38 52 W7 29.92F  
CEDAR RAPIDS FAIR 54 33 45 NW9 29.93R  

 
   
..NORTHERN ILLINOIS
 
 
 
CITY SKY/WX TMP DP RH WIND PRES REMARKS  
CHICAGO-OHARE FAIR 55 31 39 SW13 29.90S  
CHICAGO-MIDWAY FAIR 55 31 39 SW12 29.91F  
MOLINE FAIR 60 28 29 W7 29.93S  
ROCKFORD FAIR 51 32 48 SW7 29.94S  
PEORIA FAIR 59 36 42 SW9 29.95F  

 
 
NOTE: "FAIR" INDICATES FEW OR NO CLOUDS BELOW 12,000 FEET WITH NO  
SIGNIFICANT WEATHER AND/OR OBSTRUCTIONS TO VISIBILITY. WIND  
SPEEDS ARE IN MILES-PER-HOUR.  
 
 
CLICK HERE TO GO TO PREVIOUS BULLETINS.

The Nexlab WI Page
The Nexlab IA Page
The Nexlab MN Page Main Text Page